Regional Weather Roundup
Issued by NWS

Home | Current Version | Previous Version | Graphics & Text | Print | Product List | Glossary On
Versions: 1 2 3 4 5 6 7 8 9 10 11 12 13 14 15 16 17 18 19 20 21 22 23 24 25 26 27 28 29 30 31 32 33 34 35 36 37 38 39 40 41 42 43 44 45 46 47 48 49 50
000
ASUS43 KOAX 170302
RWRNE

WEATHER ROUNDUP FOR NEBRASKA
NATIONAL WEATHER SERVICE OMAHA NE
900 PM CST MON JAN 16 2017

NOTES: SATELLITE DATA IS BEING USED TO AUGMENT CLOUD COVER ABOVE
       12000 FEET.
       "FAIR" INDICATES FEW OR NO CLOUDS BELOW 12,000 FEET WITH NO
       SIGNIFICANT WEATHER AND/OR OBSTRUCTIONS TO VISIBILITY.

  * THESE STATIONS DO NOT REPORT WEATHER SUCH AS RAIN...SNOW OR FOG.

NEZ001>004-019>022-054>056-170400-
NEBRASKA PANHANDLE

CITY           SKY/WX    TMP DP  RH WIND       PRES   REMARKS
SCOTTSBLUFF    CLOUDY    25  18  74 NW7       30.11S WCI  17
ALLIANCE       CLOUDY    17  14  88 W5        30.08F WCI  10
CHADRON        CLOUDY    17  13  84 W3        30.10F
KIMBALL        CLOUDY    28  19  66 NW10      30.10R WCI  19
SIDNEY         CLOUDY    28  20  71 NW10      30.09R WCI  19
$$

NEZ057>060-069>072-079>082-170400-
SOUTHWEST NEBRASKA

CITY           SKY/WX    TMP DP  RH WIND       PRES   REMARKS
NORTH PLATTE   CLOUDY    29  22  75 NW9       30.06R WCI  20
IMPERIAL       CLOUDY    34  26  72 NW13      30.07S WCI  25
LEXINGTON      CLOUDY    34  28  77 NW7       30.04S WCI  28
MCCOOK         CLOUDY    34  30  85 NW12      30.05S WCI  25
OGALLALA       CLEAR     32  26  77 W3        30.08S
$$

NEZ005>010-023>029-035>040-094-170400-
NORTH CENTRAL NEBRASKA

CITY           SKY/WX    TMP DP  RH WIND       PRES   REMARKS
VALENTINE      CLOUDY    20  13  74 NW5       30.06S WCI  13
AINSWORTH      CLOUDY    23  18  80 W9        30.04S WCI  13
BROKEN BOW     CLOUDY    32  24  72 N16       30.03R WCI  21
O`NEILL        CLOUDY    24  19  81 NW12      30.03S WCI  13
ORD            CLOUDY    31  24  75 NW12      30.02R WCI  22
THEDFORD       CLOUDY    28  20  73 NW7       30.05S WCI  21
$$

NEZ041-046>049-061>064-073>077-083>087-170400-
SOUTH CENTRAL NEBRASKA

CITY           SKY/WX    TMP DP  RH WIND       PRES   REMARKS
GRAND ISLAND     N/A    N/A N/A N/A MISG        N/A
AURORA         CLOUDY    32  31  95 N3        30.00R
HASTINGS       CLOUDY    33  29  85 N17       30.01R WCI  22
HEBRON         MIX PCPN  32  32  99 N3        30.00S
HOLDREGE       CLOUDY    33  30  91 N3        30.02S
KEARNEY *      CLOUDY    34  27  75 CALM      30.02S
YORK           CLOUDY    32  32 100 CALM      29.99R
$$

NEZ011>018-030>034-042>045-170400-
NORTHEAST NEBRASKA

CITY           SKY/WX    TMP DP  RH WIND       PRES   REMARKS
NORFOLK        CLOUDY    30  25  81 N12G21    29.98S WCI  20
ALBION         CLOUDY    30  25  80 NW7       29.99S HAZE    WCI  23
BLAIR          CLOUDY    33  32  97 N8        29.94R FOG     WCI  26
FREMONT        CLOUDY    32  32 100 NW8       29.98R FOG     WCI  25
TEKAMAH        LGT RAIN  33  31  92 N10       29.97R FOG     WCI  25
WAYNE          CLOUDY    30  28  92 N6        29.98S WCI  24
$$

NEZ050>053-065>068-078-088>093-170400-
SOUTHEAST NEBRASKA

CITY           SKY/WX    TMP DP  RH WIND       PRES   REMARKS
LINCOLN        CLOUDY    33  32  96 N10       29.98S FOG     WCI  25
OMAHA EPPLEY   CLOUDY    34  30  85 NW13      29.96R FOG     WCI  25
BEATRICE       CLOUDY    33  33  99 NW6       29.97R FOG     WCI  27
FALLS CITY     CLOUDY    34  33  96 NW12      29.92S WCI  25
NEBRASKA CITY  CLOUDY    33  33 100 NW10      29.94R FOG     WCI  25
PLATTSMOUTH    CLOUDY    33  31  94 NW10      29.94R FOG     WCI  25
$$

NEZ044-045-051>053-067-170400-
OMAHA AREA

CITY           SKY/WX    TMP DP  RH WIND       PRES   REMARKS
OMAHA EPPLEY   CLOUDY    34  30  85 NW13      29.96R FOG     WCI  25
BLAIR          CLOUDY    33  32  97 N8        29.94R FOG     WCI  26
FREMONT        CLOUDY    32  32 100 NW8       29.98R FOG     WCI  25
MILLARD        CLOUDY    35  33  92 NW5       29.95S WCI  31
PLATTSMOUTH    CLOUDY    33  31  94 NW10      29.94R FOG     WCI  25
WAHOO          MIX PCPN  32  32  99 N12       29.97R WCI  23
$$




USA.gov is the U.S. government's official web portal to all federal, state and local government web resources and services.